Flag for U.S.A. Weather past 2 weeks in Long Beach, California, U.S.A.

Now
78 °F

Sunny.


Feels Like: 80 °F
Forecast: 64 / 89 °F
Wind: 10 mph from Northwest

Location: Long Beach Airport

Current Time: Oct 1, 2014 at 5:35:45 PM

Latest Report: Oct 1, 2014 at 4:53 PM


Visibility: 10 mi

Pressure: 29.77 "Hg

Humidity: 60%

Dew point: 63 °F

Location of Long BeachLocation

Historic Weather in Long Beach — Graph

°F

Long Beach temperature yesterday

Maximum temperature yesterday: 87 °F (at 3:53 PM)
Minimum temperature yesterday: 63 °F (at 4:53 AM)
Average temperature yesterday: 72 °F

Past Weeks' High & Low Weather Summary

 TemperatureHumidityPressure
High94 °F (Sep 16, 4:53 PM)94% (Sep 26, 3:02 AM)30.00 "Hg (Sep 26, 3:02 AM)
Low63 °F (Sep 27, 5:53 AM)21% (Sep 24, 2:53 PM)29.69 "Hg (Sep 16, 6:53 PM)
Average73 °F68%29.86 "Hg
* Reported Sep 16 3:53 PM — Oct 1 3:53 PM, Long Beach, Weather by CustomWeather, © 2014

Note: Actual official high and low records may vary slightly from our data, if they occured in-between our weather recording intervals... More about our weather records

Advertising

Long Beach weather history for previous 24 hours

 ConditionsComfort  
Time TempWeatherWind HumidityBarometerVisibility
3:53 PM
Oct 1
77 °FSunny.7 mph58%29.76 "Hg10 mi
2:53 PM78 °FSunny.8 mph56%29.76 "Hg10 mi
1:53 PM76 °FSunny.7 mph62%29.78 "Hg10 mi
12:53 PM76 °FSunny.5 mph60%29.80 "Hg10 mi
11:53 AM75 °FSunny.7 mph64%29.81 "Hg10 mi
10:53 AM74 °FSunny.5 mph69%29.82 "Hg10 mi
10:00 AM72 °FPartly sunny.3 mph73%29.83 "Hg10 mi
8:53 AM70 °FOvercast.5 mph79%29.83 "Hg10 mi
7:53 AM69 °FPartly sunny.5 mph81%29.81 "Hg10 mi
6:53 AM67 °FPassing clouds.5 mph85%29.79 "Hg10 mi
5:53 AM66 °FOvercast.No wind90%29.78 "Hg9 mi
4:53 AM65 °FPassing clouds.No wind91%29.77 "Hg9 mi
3:53 AM65 °FClear.No wind94%29.75 "Hg9 mi
2:53 AM65 °FClear.No wind91%29.76 "Hg9 mi
1:53 AM65 °FClear.3 mph91%29.76 "Hg9 mi
12:53 AM66 °FClear.No wind90%29.77 "Hg10 mi
11:53 PM
Sep 30
68 °FClear.No wind82%29.77 "Hg10 mi
10:53 PM69 °FClear.No wind79%29.77 "Hg10 mi
9:53 PM70 °FClear.No wind71%29.77 "Hg10 mi
8:53 PM70 °FClear.3 mph76%29.77 "Hg10 mi
7:53 PM71 °FClear.6 mph78%29.76 "Hg10 mi
6:53 PM74 °FSunny.10 mph67%29.75 "Hg10 mi
5:53 PM77 °FSunny.10 mph54%29.75 "Hg10 mi
Weather by CustomWeather, © 2014

See weather overviewHow to use our weather pages